Time,TemperatureF,DewpointF,PressureIn,WindDirection,WindDirectionDegrees,WindSpeedMPH,WindSpeedGustMPH,Humidity,HourlyPrecipIn,Conditions,Clouds,dailyrainin,SoftwareType,DateUTC
2013-06-08 00:02:00,57.4,54.2,29.89,ESE,113,0.0,0.0,89,0.00,,OVC110,0.00,VWS V14.01,2013-06-08 05:02:00,
2013-06-08 00:07:00,57.2,54.3,29.89,ESE,113,0.0,0.0,90,0.00,,OVC110,0.00,VWS V14.01,2013-06-08 05:07:00,
2013-06-08 00:12:00,57.1,54.2,29.89,ESE,113,0.0,0.0,90,0.00,,OVC110,0.00,VWS V14.01,2013-06-08 05:12:00,
2013-06-08 00:17:00,57.0,54.4,29.89,ESE,113,0.0,0.0,91,0.00,,OVC110,0.00,VWS V14.01,2013-06-08 05:17:00,
2013-06-08 00:22:00,57.0,54.4,29.89,ESE,113,0.0,0.0,91,0.00,,OVC110,0.00,VWS V14.01,2013-06-08 05:22:00,
2013-06-08 00:27:00,56.8,54.5,29.89,ESE,113,0.0,0.0,92,0.00,,OVC110,0.00,VWS V14.01,2013-06-08 05:27:00,
2013-06-08 00:32:00,56.7,54.4,29.89,ESE,113,0.0,0.0,92,0.00,,OVC100,0.00,VWS V14.01,2013-06-08 05:32:00,
2013-06-08 00:37:00,56.6,54.3,29.89,ESE,113,0.0,0.0,92,0.00,,OVC100,0.00,VWS V14.01,2013-06-08 05:37:00,
2013-06-08 00:42:00,56.6,54.3,29.89,ESE,113,0.0,0.0,92,0.00,,OVC100,0.00,VWS V14.01,2013-06-08 05:42:00,
2013-06-08 00:47:00,56.6,54.3,29.89,ESE,113,0.0,0.0,92,0.00,,OVC100,0.00,VWS V14.01,2013-06-08 05:47:00,
2013-06-08 00:52:00,56.5,54.2,29.89,ESE,113,0.0,0.0,92,0.00,,OVC100,0.00,VWS V14.01,2013-06-08 05:52:00,
2013-06-08 00:57:00,56.7,54.4,29.90,ESE,113,0.0,0.0,92,0.00,,OVC100,0.00,VWS V14.01,2013-06-08 05:57:00,
2013-06-08 01:02:00,56.7,54.1,29.90,ESE,113,0.0,0.0,91,0.00,,OVC100,0.00,VWS V14.01,2013-06-08 06:02:00,
2013-06-08 01:07:00,56.7,54.1,29.90,ESE,113,0.0,0.0,91,0.00,,OVC100,0.00,VWS V14.01,2013-06-08 06:07:00,
2013-06-08 01:12:00,56.6,54.0,29.90,ESE,113,0.0,0.0,91,0.00,,OVC100,0.00,VWS V14.01,2013-06-08 06:12:00,
2013-06-08 01:17:00,56.5,53.9,29.89,ESE,113,0.0,0.0,91,0.00,,OVC100,0.00,VWS V14.01,2013-06-08 06:17:00,
2013-06-08 01:22:00,56.4,53.8,29.89,ESE,113,0.0,0.0,91,0.00,,OVC100,0.00,VWS V14.01,2013-06-08 06:22:00,
2013-06-08 01:27:00,56.4,53.8,29.90,ESE,113,0.0,0.0,91,0.00,,OVC100,0.00,VWS V14.01,2013-06-08 06:27:00,
2013-06-08 01:32:00,56.3,54.0,29.89,ESE,113,0.0,0.0,92,0.00,,OVC100,0.00,VWS V14.01,2013-06-08 06:32:00,
2013-06-08 01:37:00,56.2,53.9,29.89,ESE,113,0.0,0.0,92,0.00,,OVC075,0.00,VWS V14.01,2013-06-08 06:37:00,
2013-06-08 01:42:00,56.1,53.8,29.89,ESE,113,0.0,0.0,92,0.00,,OVC075,0.00,VWS V14.01,2013-06-08 06:42:00,
2013-06-08 01:47:00,56.0,53.7,29.89,ESE,113,0.0,0.0,92,0.00,,OVC075,0.00,VWS V14.01,2013-06-08 06:47:00,
2013-06-08 01:52:00,56.0,53.7,29.89,ESE,113,0.0,0.0,92,0.00,,OVC085,0.00,VWS V14.01,2013-06-08 06:52:00,
2013-06-08 01:57:00,55.9,53.6,29.89,ESE,113,0.0,0.0,92,0.00,,OVC085,0.00,VWS V14.01,2013-06-08 06:57:00,
2013-06-08 02:02:00,55.8,53.5,29.89,ESE,113,0.0,0.0,92,0.00,,OVC085,0.00,VWS V14.01,2013-06-08 07:02:00,
2013-06-08 02:07:00,55.6,53.3,29.88,ESE,113,0.0,0.0,92,0.00,,OVC085,0.00,VWS V14.01,2013-06-08 07:07:00,
2013-06-08 02:12:00,55.5,53.2,29.88,ESE,113,0.0,0.0,92,0.00,,OVC085,0.00,VWS V14.01,2013-06-08 07:12:00,
2013-06-08 02:17:00,55.5,53.2,29.88,ESE,113,0.0,0.0,92,0.00,,OVC085,0.00,VWS V14.01,2013-06-08 07:17:00,
2013-06-08 02:22:00,55.5,53.2,29.88,ESE,113,0.0,0.0,92,0.00,,OVC085,0.00,VWS V14.01,2013-06-08 07:22:00,
2013-06-08 02:27:00,55.5,53.2,29.88,ESE,113,0.0,0.0,92,0.00,,OVC085,0.00,VWS V14.01,2013-06-08 07:27:00,
2013-06-08 02:32:00,55.6,53.3,29.88,ESE,113,0.0,0.0,92,0.00,,OVC075,0.00,VWS V14.01,2013-06-08 07:32:00,
2013-06-08 02:37:00,55.7,53.4,29.88,ESE,113,0.0,1.0,92,0.00,,OVC075,0.00,VWS V14.01,2013-06-08 07:37:00,
2013-06-08 02:42:00,55.8,53.5,29.88,ESE,113,0.0,1.0,92,0.00,,OVC075,0.00,VWS V14.01,2013-06-08 07:42:00,
2013-06-08 02:47:00,55.7,53.4,29.88,ESE,113,0.0,1.0,92,0.00,,OVC075,0.00,VWS V14.01,2013-06-08 07:47:00,
2013-06-08 02:52:00,55.7,53.4,29.88,ESE,113,0.0,1.0,92,0.00,,OVC075,0.00,VWS V14.01,2013-06-08 07:52:00,
2013-06-08 02:57:00,55.7,53.4,29.88,ESE,113,0.0,1.0,92,0.00,,OVC075,0.00,VWS V14.01,2013-06-08 07:57:00,
2013-06-08 03:02:00,55.8,53.2,29.88,ESE,113,0.0,0.0,91,0.00,,OVC075,0.00,VWS V14.01,2013-06-08 08:02:00,
2013-06-08 03:07:00,55.7,53.1,29.88,ESE,113,0.0,0.0,91,0.00,,OVC075,0.00,VWS V14.01,2013-06-08 08:07:00,
2013-06-08 03:12:00,55.7,53.1,29.88,ESE,113,0.0,0.0,91,0.00,,OVC075,0.00,VWS V14.01,2013-06-08 08:12:00,
2013-06-08 03:17:00,55.8,53.2,29.88,ESE,113,0.0,1.0,91,0.00,,OVC075,0.00,VWS V14.01,2013-06-08 08:17:00,
2013-06-08 03:22:00,55.7,53.1,29.88,ESE,113,0.0,1.0,91,0.00,,OVC075,0.00,VWS V14.01,2013-06-08 08:22:00,
2013-06-08 03:27:00,55.7,53.4,29.88,ESE,113,0.0,1.0,92,0.00,,OVC075,0.00,VWS V14.01,2013-06-08 08:27:00,
2013-06-08 03:32:00,55.7,53.4,29.88,ESE,113,1.0,1.0,92,0.00,,OVC075,0.00,VWS V14.01,2013-06-08 08:32:00,
2013-06-08 03:37:00,55.5,53.2,29.88,ESE,113,0.0,1.0,92,0.00,,OVC100,0.00,VWS V14.01,2013-06-08 08:37:00,
2013-06-08 03:42:00,55.4,53.4,29.88,ESE,113,0.0,1.0,93,0.00,,OVC100,0.00,VWS V14.01,2013-06-08 08:42:00,
2013-06-08 03:47:00,55.4,53.4,29.88,ESE,113,0.0,1.0,93,0.00,,OVC100,0.00,VWS V14.01,2013-06-08 08:47:00,
2013-06-08 03:52:00,55.6,53.6,29.88,East,100,1.0,1.0,93,0.00,,OVC075,0.00,VWS V14.01,2013-06-08 08:52:00,
2013-06-08 03:57:00,55.8,53.5,29.88,East,96,0.0,2.0,92,0.00,,OVC075,0.00,VWS V14.01,2013-06-08 08:57:00,
2013-06-08 04:02:00,56.0,53.4,29.88,East,96,0.0,1.0,91,0.00,,OVC075,0.00,VWS V14.01,2013-06-08 09:02:00,
2013-06-08 04:07:00,55.9,53.3,29.88,East,95,0.0,1.0,91,0.00,,OVC075,0.00,VWS V14.01,2013-06-08 09:07:00,
2013-06-08 04:12:00,55.8,53.2,29.88,East,95,0.0,1.0,91,0.00,,OVC075,0.00,VWS V14.01,2013-06-08 09:12:00,
2013-06-08 04:17:00,55.7,53.4,29.88,East,95,0.0,1.0,92,0.00,,OVC075,0.00,VWS V14.01,2013-06-08 09:17:00,
2013-06-08 04:22:00,55.5,53.2,29.88,East,95,0.0,1.0,92,0.00,,OVC075,0.00,VWS V14.01,2013-06-08 09:22:00,
2013-06-08 04:27:00,55.3,53.0,29.88,East,94,0.0,1.0,92,0.00,,OVC075,0.00,VWS V14.01,2013-06-08 09:27:00,
2013-06-08 04:32:00,55.0,53.0,29.88,East,95,0.0,1.0,93,0.00,,OVC085,0.00,VWS V14.01,2013-06-08 09:32:00,
2013-06-08 04:37:00,54.8,52.8,29.88,East,95,0.0,1.0,93,0.00,,OVC085,0.00,VWS V14.01,2013-06-08 09:37:00,
2013-06-08 04:42:00,54.8,53.1,29.88,East,95,0.0,1.0,94,0.00,,OVC085,0.00,VWS V14.01,2013-06-08 09:42:00,
2013-06-08 04:47:00,54.8,53.1,29.88,East,94,0.0,1.0,94,0.00,,OVC085,0.00,VWS V14.01,2013-06-08 09:47:00,
2013-06-08 04:52:00,54.7,53.0,29.88,East,95,0.0,1.0,94,0.00,,OVC085,0.00,VWS V14.01,2013-06-08 09:52:00,
2013-06-08 04:57:00,54.5,52.8,29.88,East,95,0.0,1.0,94,0.00,,OVC085,0.00,VWS V14.01,2013-06-08 09:57:00,
2013-06-08 05:02:00,54.3,52.6,29.88,East,95,0.0,0.0,94,0.00,,OVC085,0.00,VWS V14.01,2013-06-08 10:02:00,
2013-06-08 05:07:00,54.2,52.5,29.88,East,95,0.0,0.0,94,0.00,,OVC085,0.00,VWS V14.01,2013-06-08 10:07:00,
2013-06-08 05:12:00,54.2,52.5,29.89,East,94,0.0,0.0,94,0.00,,OVC085,0.00,VWS V14.01,2013-06-08 10:12:00,
2013-06-08 05:17:00,54.1,52.7,29.88,East,94,0.0,0.0,95,0.00,,OVC085,0.00,VWS V14.01,2013-06-08 10:17:00,
2013-06-08 05:22:00,54.1,52.7,29.89,East,95,0.0,0.0,95,0.00,,OVC085,0.00,VWS V14.01,2013-06-08 10:22:00,
2013-06-08 05:27:00,54.1,52.7,29.89,East,95,0.0,0.0,95,0.00,,OVC085,0.00,VWS V14.01,2013-06-08 10:27:00,
2013-06-08 05:32:00,54.0,52.6,29.89,East,95,0.0,0.0,95,0.00,,OVC085,0.00,VWS V14.01,2013-06-08 10:32:00,
2013-06-08 05:37:00,53.9,52.5,29.88,East,95,0.0,0.0,95,0.00,,OVC085,0.00,VWS V14.01,2013-06-08 10:37:00,
2013-06-08 05:42:00,53.9,52.5,29.88,East,94,0.0,0.0,95,0.00,,OVC085,0.00,VWS V14.01,2013-06-08 10:42:00,
2013-06-08 05:47:00,53.9,52.5,29.89,East,95,0.0,0.0,95,0.00,,OVC085,0.00,VWS V14.01,2013-06-08 10:47:00,
2013-06-08 05:52:00,53.9,52.5,29.88,East,95,0.0,0.0,95,0.00,,OVC085,0.00,VWS V14.01,2013-06-08 10:52:00,
2013-06-08 05:57:00,53.9,52.5,29.88,East,95,0.0,0.0,95,0.00,,OVC085,0.00,VWS V14.01,2013-06-08 10:57:00,
2013-06-08 06:02:00,54.1,52.7,29.88,East,95,0.0,0.0,95,0.00,,OVC085,0.00,VWS V14.01,2013-06-08 11:02:00,
2013-06-08 06:07:00,54.3,52.9,29.88,East,95,0.0,0.0,95,0.00,,OVC085,0.00,VWS V14.01,2013-06-08 11:07:00,
2013-06-08 06:12:00,54.5,53.1,29.88,East,95,0.0,1.0,95,0.00,,OVC085,0.00,VWS V14.01,2013-06-08 11:12:00,
2013-06-08 06:17:00,54.3,52.9,29.88,East,94,1.0,1.0,95,0.00,,OVC085,0.00,VWS V14.01,2013-06-08 11:17:00,
2013-06-08 06:22:00,54.3,52.9,29.88,ENE,76,1.0,2.0,95,0.00,,OVC085,0.00,VWS V14.01,2013-06-08 11:22:00,
2013-06-08 06:27:00,54.2,52.8,29.88,ENE,76,0.0,2.0,95,0.00,,OVC085,0.00,VWS V14.01,2013-06-08 11:27:00,
2013-06-08 06:32:00,54.3,52.9,29.88,ENE,76,0.0,1.0,95,0.00,,SCT080,0.00,VWS V14.01,2013-06-08 11:32:00,
2013-06-08 06:37:00,54.3,52.9,29.88,ENE,76,0.0,1.0,95,0.00,,SCT080,0.00,VWS V14.01,2013-06-08 11:37:00,
2013-06-08 06:42:00,54.3,52.9,29.88,ENE,76,0.0,1.0,95,0.00,,SCT080,0.00,VWS V14.01,2013-06-08 11:42:00,
2013-06-08 06:47:00,54.9,53.5,29.88,ENE,77,0.0,1.0,95,0.00,,SCT080,0.00,VWS V14.01,2013-06-08 11:47:00,
2013-06-08 06:52:00,55.6,54.2,29.88,ENE,76,0.0,1.0,95,0.00,,SCT095,0.00,VWS V14.01,2013-06-08 11:52:00,
2013-06-08 06:57:00,55.9,54.2,29.88,ENE,77,0.0,1.0,94,0.00,,SCT095,0.00,VWS V14.01,2013-06-08 11:57:00,
2013-06-08 07:02:00,56.4,54.4,29.88,East,80,0.0,1.0,93,0.00,,SCT095,0.00,VWS V14.01,2013-06-08 12:02:00,
2013-06-08 07:07:00,56.5,54.2,29.88,East,96,1.0,1.0,92,0.00,,SCT095,0.00,VWS V14.01,2013-06-08 12:07:00,
2013-06-08 07:12:00,56.3,53.7,29.88,East,92,1.0,2.0,91,0.00,,SCT095,0.00,VWS V14.01,2013-06-08 12:12:00,
2013-06-08 07:17:00,56.2,53.9,29.89,East,92,0.0,2.0,92,0.00,,SCT095,0.00,VWS V14.01,2013-06-08 12:17:00,
2013-06-08 07:22:00,56.3,54.0,29.89,East,88,1.0,2.0,92,0.00,,SCT095,0.00,VWS V14.01,2013-06-08 12:22:00,
2013-06-08 07:27:00,56.3,53.7,29.89,ENE,75,1.0,2.0,91,0.00,,SCT095,0.00,VWS V14.01,2013-06-08 12:27:00,
2013-06-08 07:32:00,56.4,53.8,29.89,East,96,0.0,1.0,91,0.00,,SCT090,0.00,VWS V14.01,2013-06-08 12:32:00,
2013-06-08 07:37:00,56.7,54.1,29.89,East,96,0.0,1.0,91,0.00,,SCT090,0.00,VWS V14.01,2013-06-08 12:37:00,
2013-06-08 07:42:00,57.5,54.9,29.89,ENE,75,1.0,2.0,91,0.00,,SCT090,0.00,VWS V14.01,2013-06-08 12:42:00,
2013-06-08 07:47:00,58.1,54.9,29.89,ENE,77,1.0,3.0,89,0.00,,SCT090,0.00,VWS V14.01,2013-06-08 12:47:00,
2013-06-08 07:52:00,58.4,54.9,29.89,ENE,74,1.0,3.0,88,0.00,,BKN039,0.00,VWS V14.01,2013-06-08 12:52:00,
2013-06-08 07:57:00,58.7,54.5,29.89,ENE,65,3.0,3.0,86,0.00,,BKN039,0.00,VWS V14.01,2013-06-08 12:57:00,
2013-06-08 08:02:00,59.2,55.3,29.89,ESE,102,1.0,3.0,87,0.00,,BKN039,0.00,VWS V14.01,2013-06-08 13:02:00,
2013-06-08 08:07:00,59.6,54.8,29.89,ESE,108,1.0,3.0,84,0.00,,BKN039,0.00,VWS V14.01,2013-06-08 13:07:00,
2013-06-08 08:12:00,59.9,54.4,29.89,East,98,2.0,4.0,82,0.00,,BKN039,0.00,VWS V14.01,2013-06-08 13:12:00,
2013-06-08 08:17:00,60.0,54.8,29.89,East,101,2.0,5.0,83,0.00,,BKN039,0.00,VWS V14.01,2013-06-08 13:17:00,
2013-06-08 08:22:00,60.5,55.3,29.88,East,100,3.0,5.0,83,0.00,,BKN039,0.00,VWS V14.01,2013-06-08 13:22:00,
2013-06-08 08:27:00,60.7,54.8,29.89,ENE,72,2.0,5.0,81,0.00,,BKN039,0.00,VWS V14.01,2013-06-08 13:27:00,
2013-06-08 08:32:00,61.0,55.1,29.89,ENE,71,2.0,4.0,81,0.00,,BKN060,0.00,VWS V14.01,2013-06-08 13:32:00,
2013-06-08 08:37:00,61.1,55.6,29.88,East,90,4.0,5.0,82,0.00,,BKN060,0.00,VWS V14.01,2013-06-08 13:37:00,
2013-06-08 08:42:00,61.6,55.7,29.88,ENE,69,2.0,5.0,81,0.00,,BKN060,0.00,VWS V14.01,2013-06-08 13:42:00,
2013-06-08 08:47:00,61.8,55.9,29.88,East,95,2.0,5.0,81,0.00,,BKN060,0.00,VWS V14.01,2013-06-08 13:47:00,
2013-06-08 08:52:00,62.0,55.1,29.89,ESE,105,3.0,5.0,78,0.00,,BKN060,0.00,VWS V14.01,2013-06-08 13:52:00,
2013-06-08 08:57:00,62.2,55.3,29.89,East,97,4.0,6.0,78,0.00,,BKN060,0.00,VWS V14.01,2013-06-08 13:57:00,
2013-06-08 09:02:00,62.6,56.0,29.89,ESE,113,0.0,4.0,79,0.00,,BKN060,0.00,VWS V14.01,2013-06-08 14:02:00,
2013-06-08 09:07:00,63.3,56.0,29.89,SE,129,1.0,4.0,77,0.00,,BKN060,0.00,VWS V14.01,2013-06-08 14:07:00,
2013-06-08 09:12:00,63.9,55.8,29.90,East,92,2.0,4.0,75,0.00,,BKN060,0.00,VWS V14.01,2013-06-08 14:12:00,
2013-06-08 09:17:00,63.9,56.2,29.90,ESE,105,2.0,4.0,76,0.00,,BKN060,0.00,VWS V14.01,2013-06-08 14:17:00,
2013-06-08 09:22:00,63.9,55.5,29.90,ESE,108,2.0,4.0,74,0.00,,BKN060,0.00,VWS V14.01,2013-06-08 14:22:00,
2013-06-08 09:27:00,63.9,55.5,29.89,ESE,117,2.0,4.0,74,0.00,,BKN060,0.00,VWS V14.01,2013-06-08 14:27:00,
2013-06-08 09:32:00,63.8,55.0,29.89,ESE,122,1.0,4.0,73,0.00,,SCT050,0.00,VWS V14.01,2013-06-08 14:32:00,
2013-06-08 09:37:00,63.7,54.9,29.89,SE,137,1.0,4.0,73,0.00,,SCT050,0.00,VWS V14.01,2013-06-08 14:37:00,
2013-06-08 09:42:00,63.8,54.6,29.90,ESE,119,2.0,4.0,72,0.00,,SCT050,0.00,VWS V14.01,2013-06-08 14:42:00,
2013-06-08 09:47:00,64.2,55.0,29.89,SE,125,1.0,4.0,72,0.00,,SCT050,0.00,VWS V14.01,2013-06-08 14:47:00,
2013-06-08 09:52:00,64.6,55.0,29.89,ESE,120,1.0,4.0,71,0.00,,CLR,0.00,VWS V14.01,2013-06-08 14:52:00,
2013-06-08 09:57:00,64.7,54.3,29.89,SSE,161,2.0,4.0,69,0.00,,CLR,0.00,VWS V14.01,2013-06-08 14:57:00,
2013-06-08 10:02:00,65.4,55.4,29.89,South,181,1.0,4.0,70,0.00,,CLR,0.00,VWS V14.01,2013-06-08 15:02:00,
2013-06-08 10:07:00,66.4,55.5,29.89,ESE,111,4.0,7.0,68,0.00,,CLR,0.00,VWS V14.01,2013-06-08 15:07:00,
2013-06-08 10:12:00,66.1,54.4,29.89,ESE,117,4.0,8.0,66,0.00,,CLR,0.00,VWS V14.01,2013-06-08 15:12:00,
2013-06-08 10:17:00,66.4,55.1,29.89,SE,139,1.0,8.0,67,0.00,,CLR,0.00,VWS V14.01,2013-06-08 15:17:00,
2013-06-08 10:22:00,66.9,54.8,29.89,East,101,1.0,8.0,65,0.00,,CLR,0.00,VWS V14.01,2013-06-08 15:22:00,
2013-06-08 10:27:00,67.4,56.1,29.89,SE,129,3.0,8.0,67,0.00,,CLR,0.00,VWS V14.01,2013-06-08 15:27:00,
2013-06-08 10:32:00,67.7,56.0,29.89,ESE,121,1.0,10.0,66,0.00,,OVC060,0.00,VWS V14.01,2013-06-08 15:32:00,
2013-06-08 10:37:00,68.2,55.6,29.89,South,177,6.0,10.0,64,0.00,,OVC060,0.00,VWS V14.01,2013-06-08 15:37:00,
2013-06-08 10:42:00,67.6,54.6,29.89,ESE,110,3.0,10.0,63,0.00,,OVC060,0.00,VWS V14.01,2013-06-08 15:42:00,
2013-06-08 10:47:00,67.3,54.7,29.89,SE,131,1.0,10.0,64,0.00,,OVC060,0.00,VWS V14.01,2013-06-08 15:47:00,
2013-06-08 10:52:00,67.1,55.8,29.89,ESE,115,2.0,10.0,67,0.00,,BKN070,0.00,VWS V14.01,2013-06-08 15:52:00,
2013-06-08 10:57:00,67.2,55.0,29.89,SE,125,0.0,10.0,65,0.00,,BKN070,0.00,VWS V14.01,2013-06-08 15:57:00,
2013-06-08 11:02:00,67.5,55.8,29.89,ESE,110,1.0,6.0,66,0.00,,BKN070,0.00,VWS V14.01,2013-06-08 16:02:00,
2013-06-08 11:07:00,67.8,55.6,29.89,East,98,7.0,8.0,65,0.00,,BKN070,0.00,VWS V14.01,2013-06-08 16:07:00,
2013-06-08 11:12:00,67.5,54.5,29.89,SSE,158,3.0,8.0,63,0.00,,BKN070,0.00,VWS V14.01,2013-06-08 16:12:00,
2013-06-08 11:17:00,67.3,54.7,29.89,SE,146,2.0,8.0,64,0.00,,BKN070,0.00,VWS V14.01,2013-06-08 16:17:00,
2013-06-08 11:22:00,67.6,55.4,29.88,SE,128,1.0,8.0,65,0.00,,BKN070,0.00,VWS V14.01,2013-06-08 16:22:00,
2013-06-08 11:27:00,67.9,54.4,29.89,ESE,116,3.0,8.0,62,0.00,,BKN070,0.00,VWS V14.01,2013-06-08 16:27:00,
2013-06-08 11:32:00,67.7,54.2,29.89,ESE,103,6.0,8.0,62,0.00,,BKN070,0.00,VWS V14.01,2013-06-08 16:32:00,
2013-06-08 11:37:00,67.5,55.3,29.88,ESE,107,7.0,9.0,65,0.00,,BKN070,0.00,VWS V14.01,2013-06-08 16:37:00,
2013-06-08 11:42:00,67.2,54.2,29.88,East,101,7.0,9.0,63,0.00,,BKN070,0.00,VWS V14.01,2013-06-08 16:42:00,
2013-06-08 11:47:00,67.1,55.0,29.88,SSE,153,2.0,9.0,65,0.00,,BKN070,0.00,VWS V14.01,2013-06-08 16:47:00,
2013-06-08 11:52:00,67.2,54.6,29.88,SSE,148,2.0,9.0,64,0.00,,SCT080,0.00,VWS V14.01,2013-06-08 16:52:00,
2013-06-08 11:57:00,67.3,55.2,29.88,ESE,105,4.0,9.0,65,0.00,,SCT080,0.00,VWS V14.01,2013-06-08 16:57:00,
2013-06-08 12:02:00,67.3,55.2,29.88,ESE,115,10.0,10.0,65,0.00,,SCT080,0.00,VWS V14.01,2013-06-08 17:02:00,
2013-06-08 12:07:00,67.4,54.4,29.88,SSE,147,2.0,10.0,63,0.00,,SCT080,0.00,VWS V14.01,2013-06-08 17:07:00,
2013-06-08 12:12:00,67.7,55.1,29.88,SE,143,4.0,10.0,64,0.00,,SCT080,0.00,VWS V14.01,2013-06-08 17:12:00,
2013-06-08 12:17:00,67.7,54.7,29.88,ESE,107,4.0,10.0,63,0.00,,SCT080,0.00,VWS V14.01,2013-06-08 17:17:00,
2013-06-08 12:22:00,67.6,55.4,29.88,ESE,103,4.0,10.0,65,0.00,,SCT080,0.00,VWS V14.01,2013-06-08 17:22:00,
2013-06-08 12:27:00,67.7,55.5,29.88,SE,136,1.0,10.0,65,0.00,,SCT080,0.00,VWS V14.01,2013-06-08 17:27:00,
2013-06-08 12:32:00,67.9,55.3,29.87,ESE,113,4.0,7.0,64,0.00,,CLR,0.00,VWS V14.01,2013-06-08 17:32:00,
2013-06-08 12:37:00,67.9,54.4,29.87,ESE,112,7.0,11.0,62,0.00,,CLR,0.00,VWS V14.01,2013-06-08 17:37:00,
2013-06-08 12:42:00,67.7,54.7,29.87,ESE,110,4.0,11.0,63,0.00,,CLR,0.00,VWS V14.01,2013-06-08 17:42:00,
2013-06-08 12:47:00,67.9,54.8,29.87,East,93,5.0,11.0,63,0.00,,CLR,0.00,VWS V14.01,2013-06-08 17:47:00,
2013-06-08 12:52:00,68.3,55.2,29.87,ESE,105,3.0,11.0,63,0.00,,SCT060,0.00,VWS V14.01,2013-06-08 17:52:00,
2013-06-08 12:57:00,68.2,55.1,29.87,ESE,108,6.0,11.0,63,0.00,,SCT060,0.00,VWS V14.01,2013-06-08 17:57:00,
2013-06-08 13:02:00,68.0,55.0,29.87,SE,129,3.0,7.0,63,0.00,,SCT060,0.00,VWS V14.01,2013-06-08 18:02:00,
2013-06-08 13:07:00,68.0,55.0,29.87,ENE,74,7.0,8.0,63,0.00,,SCT060,0.00,VWS V14.01,2013-06-08 18:07:00,
2013-06-08 13:12:00,68.2,55.1,29.87,SE,128,5.0,10.0,63,0.00,,SCT060,0.00,VWS V14.01,2013-06-08 18:12:00,
2013-06-08 13:17:00,68.5,54.5,29.87,ESE,110,5.0,10.0,61,0.00,,SCT060,0.00,VWS V14.01,2013-06-08 18:17:00,
2013-06-08 13:22:00,68.8,55.3,29.87,East,98,6.0,10.0,62,0.00,,SCT060,0.00,VWS V14.01,2013-06-08 18:22:00,
2013-06-08 13:27:00,69.3,55.3,29.87,ESE,115,6.0,10.0,61,0.00,,SCT060,0.00,VWS V14.01,2013-06-08 18:27:00,
2013-06-08 13:32:00,69.2,54.7,29.87,ESE,108,6.0,13.0,60,0.00,,BKN060,0.00,VWS V14.01,2013-06-08 18:32:00,
2013-06-08 13:37:00,69.5,55.5,29.87,ESE,114,7.0,13.0,61,0.00,,BKN060,0.00,VWS V14.01,2013-06-08 18:37:00,
2013-06-08 13:42:00,70.0,55.5,29.87,ESE,117,8.0,13.0,60,0.00,,BKN060,0.00,VWS V14.01,2013-06-08 18:42:00,
2013-06-08 13:47:00,69.4,55.4,29.86,East,84,7.0,13.0,61,0.00,,BKN060,0.00,VWS V14.01,2013-06-08 18:47:00,
2013-06-08 13:52:00,68.7,55.6,29.86,ESE,103,10.0,13.0,63,0.00,,SCT080,0.00,VWS V14.01,2013-06-08 18:52:00,
2013-06-08 13:57:00,69.3,55.7,29.86,SE,125,2.0,13.0,62,0.00,,SCT080,0.00,VWS V14.01,2013-06-08 18:57:00,
2013-06-08 14:02:00,69.2,55.6,29.87,ESE,103,6.0,8.0,62,0.00,,SCT080,0.00,VWS V14.01,2013-06-08 19:02:00,
2013-06-08 14:07:00,69.0,55.5,29.87,ESE,122,3.0,8.0,62,0.00,,SCT080,0.00,VWS V14.01,2013-06-08 19:07:00,
2013-06-08 14:12:00,69.2,55.2,29.87,SE,145,1.0,8.0,61,0.00,,SCT080,0.00,VWS V14.01,2013-06-08 19:12:00,
2013-06-08 14:17:00,69.3,55.7,29.86,ESE,121,1.0,8.0,62,0.00,,SCT080,0.00,VWS V14.01,2013-06-08 19:17:00,
2013-06-08 14:22:00,69.4,55.8,29.87,South,175,3.0,8.0,62,0.00,,SCT080,0.00,VWS V14.01,2013-06-08 19:22:00,
2013-06-08 14:28:00,69.2,55.6,29.87,East,98,9.0,11.0,62,0.00,,SCT080,0.00,VWS V14.01,2013-06-08 19:28:00,
2013-06-08 14:33:00,69.1,56.0,29.86,East,101,5.0,9.0,63,0.00,,SCT080,0.00,VWS V14.01,2013-06-08 19:33:00,
2013-06-08 14:38:00,69.1,55.5,29.86,ESE,112,7.0,11.0,62,0.00,,SCT065,0.00,VWS V14.01,2013-06-08 19:38:00,
2013-06-08 14:43:00,68.9,55.8,29.86,ESE,103,7.0,11.0,63,0.00,,SCT065,0.00,VWS V14.01,2013-06-08 19:43:00,
2013-06-08 14:48:00,69.0,56.8,29.86,SSE,150,3.0,12.0,65,0.00,,SCT065,0.00,VWS V14.01,2013-06-08 19:48:00,
2013-06-08 14:53:00,69.0,56.3,29.86,ESE,115,5.0,12.0,64,0.00,,SCT042,0.00,VWS V14.01,2013-06-08 19:53:00,
2013-06-08 14:57:00,68.9,56.2,29.86,ESE,105,8.0,12.0,64,0.00,,SCT042,0.00,VWS V14.01,2013-06-08 19:57:00,
2013-06-08 15:03:00,68.8,56.1,29.86,ESE,105,7.0,8.0,64,0.00,,SCT042,0.00,VWS V14.01,2013-06-08 20:03:00,
2013-06-08 15:08:00,68.8,56.6,29.86,ESE,105,9.0,10.0,65,0.00,,SCT042,0.00,VWS V14.01,2013-06-08 20:08:00,
2013-06-08 15:12:00,69.0,56.3,29.86,ESE,110,3.0,10.0,64,0.00,,SCT042,0.00,VWS V14.01,2013-06-08 20:12:00,
2013-06-08 15:17:00,69.0,56.8,29.86,ESE,107,3.0,10.0,65,0.00,,SCT042,0.00,VWS V14.01,2013-06-08 20:17:00,
2013-06-08 15:22:00,69.0,55.9,29.86,ESE,108,4.0,10.0,63,0.00,,SCT042,0.00,VWS V14.01,2013-06-08 20:22:00,
2013-06-08 15:27:00,69.0,55.9,29.86,ESE,108,9.0,11.0,63,0.00,,SCT042,0.00,VWS V14.01,2013-06-08 20:27:00,
2013-06-08 15:32:00,68.8,56.1,29.86,ESE,122,4.0,9.0,64,0.00,,CLR,0.00,VWS V14.01,2013-06-08 20:32:00,
2013-06-08 15:37:00,68.7,56.0,29.86,SE,129,3.0,9.0,64,0.00,,CLR,0.00,VWS V14.01,2013-06-08 20:37:00,
2013-06-08 15:42:00,68.6,56.0,29.86,SE,125,3.0,9.0,64,0.00,,CLR,0.00,VWS V14.01,2013-06-08 20:42:00,
2013-06-08 15:47:00,68.8,56.6,29.86,SE,128,2.0,9.0,65,0.00,,CLR,0.00,VWS V14.01,2013-06-08 20:47:00,
2013-06-08 15:52:00,69.0,56.8,29.86,ESE,107,5.0,9.0,65,0.00,,BKN095,0.00,VWS V14.01,2013-06-08 20:52:00,
2013-06-08 15:57:00,69.0,56.8,29.86,ESE,110,2.0,9.0,65,0.00,,BKN095,0.00,VWS V14.01,2013-06-08 20:57:00,
2013-06-08 16:02:00,68.9,56.2,29.87,SSE,158,2.0,4.0,64,0.00,,BKN095,0.00,VWS V14.01,2013-06-08 21:02:00,
2013-06-08 16:07:00,68.7,55.6,29.87,ESE,123,1.0,6.0,63,0.00,,BKN095,0.00,VWS V14.01,2013-06-08 21:07:00,
2013-06-08 16:12:00,68.8,55.7,29.87,ESE,121,2.0,6.0,63,0.00,,BKN095,0.00,VWS V14.01,2013-06-08 21:12:00,
2013-06-08 16:17:00,68.9,56.2,29.87,ESE,121,2.0,6.0,64,0.00,,BKN095,0.00,VWS V14.01,2013-06-08 21:17:00,
2013-06-08 16:22:00,69.1,55.1,29.87,ESE,113,6.0,9.0,61,0.00,,BKN095,0.00,VWS V14.01,2013-06-08 21:22:00,
2013-06-08 16:27:00,69.4,55.4,29.87,SE,129,5.0,11.0,61,0.00,,BKN095,0.00,VWS V14.01,2013-06-08 21:27:00,
2013-06-08 16:32:00,69.7,56.1,29.87,ESE,117,6.0,8.0,62,0.00,,SCT055,0.00,VWS V14.01,2013-06-08 21:32:00,
2013-06-08 16:37:00,70.0,56.0,29.87,East,87,2.0,8.0,61,0.00,,SCT055,0.00,VWS V14.01,2013-06-08 21:37:00,
2013-06-08 16:42:00,69.9,55.4,29.87,SE,138,5.0,8.0,60,0.00,,SCT055,0.00,VWS V14.01,2013-06-08 21:42:00,
2013-06-08 16:47:00,69.7,55.2,29.86,ESE,113,7.0,10.0,60,0.00,,SCT055,0.00,VWS V14.01,2013-06-08 21:47:00,
2013-06-08 16:52:00,69.4,55.4,29.86,ESE,103,9.0,10.0,61,0.00,,BKN085,0.00,VWS V14.01,2013-06-08 21:52:00,
2013-06-08 16:57:00,69.5,55.9,29.86,ESE,122,6.0,10.0,62,0.00,,BKN085,0.00,VWS V14.01,2013-06-08 21:57:00,
2013-06-08 17:02:00,69.6,55.6,29.86,East,101,2.0,7.0,61,0.00,,BKN085,0.00,VWS V14.01,2013-06-08 22:02:00,
2013-06-08 17:07:00,69.6,56.0,29.86,ESE,113,6.0,8.0,62,0.00,,BKN085,0.00,VWS V14.01,2013-06-08 22:07:00,
2013-06-08 17:12:00,69.5,56.4,29.86,ESE,122,5.0,10.0,63,0.00,,BKN085,0.00,VWS V14.01,2013-06-08 22:12:00,
2013-06-08 17:17:00,69.5,55.5,29.86,ESE,117,6.0,10.0,61,0.00,,BKN085,0.00,VWS V14.01,2013-06-08 22:17:00,
2013-06-08 17:22:00,69.6,55.6,29.86,ESE,111,2.0,10.0,61,0.00,,BKN085,0.00,VWS V14.01,2013-06-08 22:22:00,
2013-06-08 17:27:00,69.7,55.7,29.86,SSE,153,4.0,10.0,61,0.00,,BKN085,0.00,VWS V14.01,2013-06-08 22:27:00,
2013-06-08 17:32:00,69.6,55.1,29.87,ESE,115,3.0,8.0,60,0.00,,SCT090,0.00,VWS V14.01,2013-06-08 22:32:00,
2013-06-08 17:37:00,69.7,55.2,29.87,South,177,4.0,8.0,60,0.00,,SCT090,0.00,VWS V14.01,2013-06-08 22:37:00,
2013-06-08 17:42:00,69.7,54.8,29.86,SSE,147,4.0,8.0,59,0.00,,SCT090,0.00,VWS V14.01,2013-06-08 22:42:00,
2013-06-08 17:47:00,69.7,55.2,29.87,ESE,120,4.0,8.0,60,0.00,,SCT090,0.00,VWS V14.01,2013-06-08 22:47:00,
2013-06-08 17:52:00,70.1,55.1,29.86,ESE,103,5.0,9.0,59,0.00,,CLR,0.00,VWS V14.01,2013-06-08 22:52:00,
2013-06-08 17:57:00,70.5,56.0,29.86,SE,131,3.0,9.0,60,0.00,,CLR,0.00,VWS V14.01,2013-06-08 22:57:00,
2013-06-08 18:02:00,70.3,55.3,29.86,ESE,120,2.0,10.0,59,0.00,,CLR,0.00,VWS V14.01,2013-06-08 23:02:00,
2013-06-08 18:07:00,70.0,55.0,29.86,ESE,108,4.0,10.0,59,0.00,,CLR,0.00,VWS V14.01,2013-06-08 23:07:00,
2013-06-08 18:12:00,69.7,55.7,29.86,ESE,117,8.0,10.0,61,0.00,,CLR,0.00,VWS V14.01,2013-06-08 23:12:00,
2013-06-08 18:17:00,69.6,55.6,29.86,ESE,117,6.0,10.0,61,0.00,,CLR,0.00,VWS V14.01,2013-06-08 23:17:00,
2013-06-08 18:22:00,69.6,55.6,29.86,ESE,104,6.0,10.0,61,0.00,,CLR,0.00,VWS V14.01,2013-06-08 23:22:00,
2013-06-08 18:27:00,69.9,56.8,29.86,ESE,113,4.0,10.0,63,0.00,,CLR,0.00,VWS V14.01,2013-06-08 23:27:00,
2013-06-08 18:32:00,69.7,55.7,29.86,SE,128,5.0,9.0,61,0.00,,CLR,0.00,VWS V14.01,2013-06-08 23:32:00,
2013-06-08 18:37:00,69.8,56.2,29.86,ESE,117,2.0,9.0,62,0.00,,CLR,0.00,VWS V14.01,2013-06-08 23:37:00,
2013-06-08 18:42:00,70.0,56.4,29.86,ESE,110,4.0,9.0,62,0.00,,CLR,0.00,VWS V14.01,2013-06-08 23:42:00,
2013-06-08 18:47:00,70.2,56.1,29.86,ESE,117,3.0,9.0,61,0.00,,CLR,0.00,VWS V14.01,2013-06-08 23:47:00,
2013-06-08 18:52:00,70.2,56.6,29.86,ESE,107,6.0,10.0,62,0.00,,CLR,0.00,VWS V14.01,2013-06-08 23:52:00,
2013-06-08 18:57:00,70.1,56.5,29.86,ESE,114,3.0,10.0,62,0.00,,CLR,0.00,VWS V14.01,2013-06-08 23:57:00,
2013-06-08 19:03:00,70.1,56.9,29.86,ESE,117,5.0,8.0,63,0.00,,CLR,0.00,VWS V14.01,2013-06-09 00:03:00,
2013-06-08 19:08:00,69.8,56.7,29.86,ESE,120,3.0,8.0,63,0.00,,CLR,0.00,VWS V14.01,2013-06-09 00:08:00,
2013-06-08 19:13:00,69.6,56.9,29.86,ESE,107,4.0,8.0,64,0.00,,CLR,0.00,VWS V14.01,2013-06-09 00:13:00,
2013-06-08 19:18:00,69.4,56.3,29.86,ESE,112,5.0,8.0,63,0.00,,CLR,0.00,VWS V14.01,2013-06-09 00:18:00,
2013-06-08 19:23:00,69.4,55.8,29.86,SE,138,3.0,8.0,62,0.00,,CLR,0.00,VWS V14.01,2013-06-09 00:23:00,
2013-06-08 19:28:00,69.6,55.1,29.86,SE,125,5.0,5.0,60,0.00,,CLR,0.00,VWS V14.01,2013-06-09 00:28:00,
2013-06-08 19:33:00,69.6,55.6,29.86,ESE,113,5.0,8.0,61,0.00,,CLR,0.00,VWS V14.01,2013-06-09 00:33:00,
2013-06-08 19:38:00,69.3,55.3,29.86,ESE,122,4.0,8.0,61,0.00,,CLR,0.00,VWS V14.01,2013-06-09 00:38:00,
2013-06-08 19:43:00,69.3,55.7,29.86,ESE,118,3.0,8.0,62,0.00,,CLR,0.00,VWS V14.01,2013-06-09 00:43:00,
2013-06-08 19:48:00,69.2,55.6,29.86,SE,136,2.0,8.0,62,0.00,,CLR,0.00,VWS V14.01,2013-06-09 00:48:00,
2013-06-08 19:53:00,69.4,56.3,29.86,ESE,114,2.0,8.0,63,0.00,,CLR,0.00,VWS V14.01,2013-06-09 00:53:00,
2013-06-08 19:58:00,69.3,55.7,29.86,ESE,110,5.0,5.0,62,0.00,,CLR,0.00,VWS V14.01,2013-06-09 00:58:00,
2013-06-08 20:03:00,69.2,56.5,29.86,ESE,104,3.0,6.0,64,0.00,,CLR,0.00,VWS V14.01,2013-06-09 01:03:00,
2013-06-08 20:08:00,68.9,55.8,29.86,ESE,116,2.0,6.0,63,0.00,,CLR,0.00,VWS V14.01,2013-06-09 01:08:00,
2013-06-08 20:13:00,68.8,55.7,29.86,East,94,4.0,6.0,63,0.00,,CLR,0.00,VWS V14.01,2013-06-09 01:13:00,
2013-06-08 20:18:00,68.6,56.4,29.86,ESE,105,3.0,7.0,65,0.00,,CLR,0.00,VWS V14.01,2013-06-09 01:18:00,
2013-06-08 20:23:00,68.3,56.9,29.86,East,100,4.0,7.0,67,0.00,,CLR,0.00,VWS V14.01,2013-06-09 01:23:00,
2013-06-08 20:27:00,67.9,57.0,29.86,East,100,3.0,8.0,68,0.00,,CLR,0.00,VWS V14.01,2013-06-09 01:27:00,
2013-06-08 20:32:00,67.6,57.1,29.86,East,101,4.0,8.0,69,0.00,,CLR,0.00,VWS V14.01,2013-06-09 01:32:00,
2013-06-08 20:37:00,67.5,57.0,29.86,East,101,4.0,8.0,69,0.00,,CLR,0.00,VWS V14.01,2013-06-09 01:37:00,
2013-06-08 20:42:00,67.4,57.3,29.86,ESE,112,3.0,10.0,70,0.00,,CLR,0.00,VWS V14.01,2013-06-09 01:42:00,
2013-06-08 20:47:00,67.1,57.4,29.86,ESE,110,3.0,10.0,71,0.00,,CLR,0.00,VWS V14.01,2013-06-09 01:47:00,
2013-06-08 20:52:00,66.8,57.5,29.86,ESE,108,3.0,10.0,72,0.00,,CLR,0.00,VWS V14.01,2013-06-09 01:52:00,
2013-06-08 20:57:00,66.5,57.6,29.86,ESE,116,2.0,10.0,73,0.00,,CLR,0.00,VWS V14.01,2013-06-09 01:57:00,
2013-06-08 21:02:00,66.3,57.4,29.86,ESE,109,3.0,4.0,73,0.00,,CLR,0.00,VWS V14.01,2013-06-09 02:02:00,
2013-06-08 21:07:00,66.1,57.2,29.86,ESE,112,3.0,4.0,73,0.00,,CLR,0.00,VWS V14.01,2013-06-09 02:07:00,
2013-06-08 21:12:00,66.0,57.5,29.86,ESE,110,4.0,4.0,74,0.00,,CLR,0.00,VWS V14.01,2013-06-09 02:12:00,
2013-06-08 21:17:00,65.8,57.3,29.86,ESE,113,3.0,5.0,74,0.00,,CLR,0.00,VWS V14.01,2013-06-09 02:17:00,
2013-06-08 21:22:00,65.6,57.1,29.86,ESE,105,2.0,5.0,74,0.00,,CLR,0.00,VWS V14.01,2013-06-09 02:22:00,
2013-06-08 21:27:00,65.5,57.4,29.86,East,101,1.0,5.0,75,0.00,,CLR,0.00,VWS V14.01,2013-06-09 02:27:00,
2013-06-08 21:32:00,65.2,57.1,29.86,East,97,3.0,4.0,75,0.00,,SCT120,0.00,VWS V14.01,2013-06-09 02:32:00,
2013-06-08 21:37:00,65.0,57.3,29.86,East,101,2.0,4.0,76,0.00,,SCT120,0.00,VWS V14.01,2013-06-09 02:37:00,
2013-06-08 21:42:00,64.6,56.9,29.86,East,79,3.0,4.0,76,0.00,,SCT120,0.00,VWS V14.01,2013-06-09 02:42:00,
2013-06-08 21:47:00,64.3,57.0,29.87,East,98,4.0,4.0,77,0.00,,SCT120,0.00,VWS V14.01,2013-06-09 02:47:00,
2013-06-08 21:52:00,64.0,57.0,29.87,East,80,4.0,6.0,78,0.00,,SCT120,0.00,VWS V14.01,2013-06-09 02:52:00,
2013-06-08 21:57:00,63.6,56.6,29.87,ENE,70,6.0,7.0,78,0.00,,SCT120,0.00,VWS V14.01,2013-06-09 02:57:00,
2013-06-08 22:02:00,63.3,56.7,29.87,East,84,4.0,5.0,79,0.00,,SCT120,0.00,VWS V14.01,2013-06-09 03:02:00,
2013-06-08 22:07:00,63.2,56.6,29.87,East,89,3.0,5.0,79,0.00,,SCT120,0.00,VWS V14.01,2013-06-09 03:07:00,
2013-06-08 22:12:00,63.0,56.4,29.87,ENE,76,4.0,6.0,79,0.00,,SCT120,0.00,VWS V14.01,2013-06-09 03:12:00,
2013-06-08 22:17:00,62.7,56.5,29.87,East,79,5.0,6.0,80,0.00,,SCT120,0.00,VWS V14.01,2013-06-09 03:17:00,
2013-06-08 22:22:00,62.5,56.2,29.87,ENE,68,3.0,6.0,80,0.00,,SCT120,0.00,VWS V14.01,2013-06-09 03:22:00,
2013-06-08 22:27:00,62.3,56.4,29.87,East,92,3.0,6.0,81,0.00,,SCT120,0.00,VWS V14.01,2013-06-09 03:27:00,
2013-06-08 22:32:00,62.1,56.5,29.87,ESE,120,3.0,3.0,82,0.00,,SCT120,0.00,VWS V14.01,2013-06-09 03:32:00,
2013-06-08 22:37:00,62.1,56.5,29.87,East,100,3.0,4.0,82,0.00,,SCT120,0.00,VWS V14.01,2013-06-09 03:37:00,
2013-06-08 22:42:00,62.1,56.2,29.87,ESE,120,3.0,4.0,81,0.00,,SCT120,0.00,VWS V14.01,2013-06-09 03:42:00,
2013-06-08 22:47:00,62.1,56.2,29.87,ESE,105,3.0,4.0,81,0.00,,SCT120,0.00,VWS V14.01,2013-06-09 03:47:00,
2013-06-08 22:52:00,61.8,55.9,29.88,ESE,110,2.0,4.0,81,0.00,,SCT120,0.00,VWS V14.01,2013-06-09 03:52:00,
2013-06-08 22:57:00,61.7,56.2,29.89,ESE,120,0.0,4.0,82,0.00,,SCT120,0.00,VWS V14.01,2013-06-09 03:57:00,
2013-06-08 23:01:00,61.7,56.2,29.89,SE,134,1.0,1.0,82,0.00,,SCT120,0.00,VWS V14.01,2013-06-09 04:01:00,
2013-06-08 23:06:00,61.9,56.0,29.88,SE,132,1.0,5.0,81,0.00,,SCT120,0.00,VWS V14.01,2013-06-09 04:06:00,
2013-06-08 23:11:00,62.2,56.0,29.88,ESE,112,4.0,5.0,80,0.00,,SCT120,0.00,VWS V14.01,2013-06-09 04:11:00,
2013-06-08 23:16:00,62.4,56.2,29.88,ESE,108,2.0,5.0,80,0.00,,SCT120,0.00,VWS V14.01,2013-06-09 04:16:00,
2013-06-08 23:21:00,62.6,56.0,29.88,ESE,122,3.0,5.0,79,0.00,,SCT120,0.00,VWS V14.01,2013-06-09 04:21:00,
2013-06-08 23:26:00,62.6,56.0,29.88,ESE,110,4.0,8.0,79,0.00,,SCT120,0.00,VWS V14.01,2013-06-09 04:26:00,
2013-06-08 23:31:00,62.6,56.0,29.87,ESE,117,3.0,5.0,79,0.00,,SCT120,0.00,VWS V14.01,2013-06-09 04:31:00,
2013-06-08 23:36:00,62.4,55.8,29.88,East,101,5.0,5.0,79,0.00,,BKN120,0.00,VWS V14.01,2013-06-09 04:36:00,
2013-06-08 23:41:00,62.4,55.8,29.88,ESE,102,3.0,5.0,79,0.00,,BKN120,0.00,VWS V14.01,2013-06-09 04:41:00,
2013-06-08 23:46:00,62.1,55.5,29.88,ESE,102,3.0,5.0,79,0.00,,BKN120,0.00,VWS V14.01,2013-06-09 04:46:00,
2013-06-08 23:51:00,61.8,55.6,29.88,East,99,3.0,5.0,80,0.00,,SCT120,0.00,VWS V14.01,2013-06-09 04:51:00,
2013-06-08 23:56:00,61.6,55.4,29.88,East,101,5.0,7.0,80,0.00,,SCT120,0.00,VWS V14.01,2013-06-09 04:56:00,